Showing default

HYPERVIEW-1G, 61772

Orbit data source: Space-Track

HYPERVIEW-1G, 61772 is a payload satellite owned by SNIU (CIS) in SSO that was launched on Mon, 04 Nov 2024 UTC via a SOYUZ-2-1B launch vehicle from the Vostochny Cosmodrome (VOSTO). Payload-class satellites include a variety of spacecraft equipped with specific instruments for various scientific and technological missions. These include communications satellites like Starlink; space stations such as the ISS; scientific satellites like the Hubble; Earth observation satellites from companies like Planet Labs, Umbra, and HawkEye 360; GPS; miniature CubeSats for education and research; and military/defense satellites.

Loading next visibility...
Identifier
61772, 2024-199AP
Orbit
SSO
Country
Flag of CISCIS
Related business
Manufacturer
Sputniks
Mission
Operational Amateur Imaging
Bus & Motor
CUBESAT 6U, Unknown motor
Mass
10 kg wet, 10 kg dry
Launch date (UTC)
2024-11-04 (10 months ago)
Launch vehicle
SOYUZ-2-1B
Launch site
Vostochny Cosmodrome (VOSTO)
Object type
Payload
Rocket body
Debris
Shape & HBR
Box, 0.1 m
Radar Cross Section
0.080 m², Medium (>0.1 m² and < 1m²)

Expand to show TLE details & history
Last TLE update: 14 hours ago

TLE from 14 hours ago
0 HYPERVIEW-1G
1 61772U 24199AP  25260.26185568  .00022056  00000-0  55798-3 0  9996
2 61772  97.3368 129.1013 0012113 184.0691 176.0459 15.39707995 92272
Epoch: 2025-09-17T06:17Z
TLE epoch observation values (Epoch: 2025-09-17T06:17:04.33Z)
Latitude
Longitude
38.39292°
Altitude
458.341 km
Speed
7.633 km/s
True Right ascension
08h 36m 24s
True Declination
0° 00' 00"
Sunlit
Object was in daylight at epoch
Visualization orbit readout
Latitude
Unknown
Longitude
Unknown
Altitude
Unknown
Speed
Unknown
Apparent Right ascension
Unknown
Apparent Declination
Unknown
Sunlit
N/A
Visualization observer readout
Local Sidereal Time
13:06:23
Azimuth
Unknown
Elevation
Unknown
Doppler factor
Unknown
Orbital elements
Apogee altitude
452.172 km
Perigee altitude
435.645 km
Semi-major axis
6,822.046 km
Eccentricity
0.00121
Inclination
97.3368°
RAAN
129.1013°
Arg. of periapsis
184.0691°
True anomaly
176.05546°
Mean anomaly
176.0459°
Eccentric anomaly
176.05068°
Mean motion
3.85187 °/min
Orbital period
93.46 mins
BSTAR
0.00055798
Loading maneuver chart data...
Computing Atmospheric mass density...
Loading historical data...
Loading historical data...
Loading historical data...
Loading historical data...
Loading historical data...
Loading historical data...
Loading historical data...

Documentation

Showing up to 5 results
|